• Join FlightAware (Why Join?)
  • Login
  • US Flag 
08:15PM EDT


 

Airport Tracker/Info


-or-


 

Live Flight TrackerFlight Track Log ✈ SWA2093 ✈ 24-Aug-2014 ✈ KDEN - KGEG

Flight Track Log - Related Links

Times and Time Zones

All times are in EDT time to prevent confusion due to time zone crossing. See the SWA2093 flight status page for this flight to view local times or setup timezone preferences in your user account.

Time Position Orientation Groundspeed Altitude Reporting Facility
EDT Latitude Longitude Course Direction KTS MPH feet Rate Location/Type
11:39PM 39.8167 -104.6333 81° East 195 224 7,300  Level Denver TRACON
11:41PM 39.8419 -104.5322 72° East 235 270 9,400 1,800 Climbing Denver Center
11:42PM 39.9125 -104.4842 28° Northeast 313 360 11,500 2,700 Climbing Denver Center
11:43PM 40.9026 -106.1022 321° Northwest  Level Estimated
11:43PM 40.0111 -104.5061 350° North 355 409 15,000  Level Denver Center
11:44PM 40.9714 -106.1990 313° West  Level Estimated
11:44PM 40.0978 -104.5708 330° Northwest 363 418 18,400  Level Denver Center
11:45PM 39.8858 -104.5301 81° East  Level FlightAware Approximate
11:45PM 40.1900 -104.6397 330° Northwest 368 423 21,600  Level Denver Center
11:46PM 40.2811 -104.7058 331° Northwest 374 430 24,600 2,640 Climbing Denver Center
11:47PM 40.3767 -104.7769 330° Northwest 393 452 27,100 2,280 Climbing Denver Center
11:48PM 40.4731 -104.8483 331° Northwest 397 457 29,300 1,800 Climbing Denver Center
11:49PM 40.5756 -104.9233 331° Northwest 418 481 30,800 1,440 Climbing Denver Center
11:50PM 40.6814 -105.0039 330° Northwest 433 498 32,300 1,860 Climbing Denver Center
11:51PM 40.7861 -105.0886 329° Northwest 441 507 34,600 2,160 Climbing Denver Center
11:52PM 40.8717 -105.1883 319° Northwest 415 478 36,800 1,800 Climbing Denver Center
11:53PM 40.9728 -105.3025 320° Northwest 406 467 38,400 1,260 Climbing Denver Center
11:54PM 41.0589 -105.4022 319° Northwest 403 464 39,500 780 Climbing Denver Center
11:55PM 41.1422 -105.4956 320° Northwest 406 467 40,000 240 Climbing Denver Center
11:56PM 41.2253 -105.5906 319° Northwest 408 470 40,000  Level Denver Center
11:57PM 41.3203 -105.7019 319° Northwest 408 470 40,000  Level Denver Center
11:58PM 41.3828 -105.8161 306° West 402 463 40,000  Level Denver Center
11:59PM 41.4386 -105.9369 302° West 401 461 40,000  Level Denver Center
12:00AM 41.5050 -106.0778 302° West 400 460 40,000  Level Denver Center
12:01AM 41.5617 -106.1992 302° West 401 461 40,000  Level Denver Center
12:02AM 41.6175 -106.3178 302° West 395 455 40,000  Level Denver Center
12:03AM 41.6794 -106.4536 301° West 385 443 40,000  Level Denver Center
12:04AM 41.7383 -106.5789 302° West 380 437 40,000  Level Denver Center
12:05AM 41.7919 -106.6981 301° West 387 445 40,000  Level Denver Center
12:06AM 41.8464 -106.8153 302° West 388 447 40,000  Level Denver Center
12:07AM 41.9086 -106.9533 301° West 388 447 40,000  Level Denver Center
12:08AM 41.9608 -107.0703 301° West 387 445 40,000  Level Denver Center
12:09AM 42.0144 -107.1883 301° West 384 442 40,000  Level Denver Center
12:10AM 42.0761 -107.3267 301° West 385 443 40,000  Level Denver Center
12:11AM 42.1272 -107.4456 300° West 387 445 40,000  Level Salt Lake Center
12:12AM 42.1819 -107.5653 302° West 392 451 40,000  Level Salt Lake Center
12:13AM 42.2364 -107.6886 301° West 397 457 40,000  Level Salt Lake Center
12:14AM 42.2997 -107.8319 301° West 399 459 40,000  Level Salt Lake Center
12:15AM 42.3539 -107.9569 300° West 401 461 40,000  Level Salt Lake Center
12:16AM 42.4189 -108.1014 301° West 403 464 40,000  Level Salt Lake Center
12:17AM 42.4717 -108.2239 300° West 401 461 40,000  Level Salt Lake Center
12:18AM 42.5261 -108.3500 300° West 401 461 40,000  Level Salt Lake Center
12:19AM 42.5894 -108.4978 300° West 405 466 40,000  Level Salt Lake Center
12:20AM 42.6442 -108.6250 300° West 406 467 40,000  Level Salt Lake Center
12:21AM 42.7092 -108.7761 300° West 413 475 40,000  Level Salt Lake Center
12:22AM 42.7647 -108.9064 300° West 417 480 40,000  Level Salt Lake Center
12:23AM 42.8194 -109.0369 300° West 418 481 40,000  Level Salt Lake Center
12:24AM 42.8831 -109.1908 299° West 418 481 40,000  Level Salt Lake Center
12:25AM 42.9378 -109.3228 300° West 418 481 40,000  Level Salt Lake Center
12:26AM 42.9936 -109.4553 300° West 417 480 40,000  Level Salt Lake Center
12:27AM 43.0514 -109.5956 299° West 420 483 40,000  Level Salt Lake Center
12:28AM 43.1094 -109.7347 300° West 421 484 40,000  Level Salt Lake Center
12:29AM 43.1764 -109.8917 300° West 424 488 40,000  Level Salt Lake Center
12:30AM 43.2342 -110.0350 299° West 426 490 40,000  Level Salt Lake Center
12:32AM 43.2989 -110.1944 299° West 429 494 40,000  Level Salt Lake Center
12:33AM 43.3542 -110.3328 299° West 429 494 40,000  Level Salt Lake Center
12:34AM 43.4092 -110.4678 299° West 428 493 40,000  Level Salt Lake Center
12:35AM 43.4650 -110.6061 299° West 428 493 40,000  Level Salt Lake Center
12:36AM 43.5214 -110.7489 299° West 427 491 40,000  Level Salt Lake Center
12:37AM 43.5903 -110.9258 298° West 440 506 40,000  Level Salt Lake Center
12:38AM 43.6486 -111.0686 299° West 430 495 40,000  Level Salt Lake Center
12:39AM 43.7058 -111.2144 299° West 430 495 40,000  Level Salt Lake Center
12:40AM 43.7633 -111.3608 299° West 431 496 40,000  Level Salt Lake Center
12:41AM 43.8214 -111.5111 298° West 437 503 40,000  Level Salt Lake Center
12:42AM 43.8794 -111.6614 298° West 439 505 40,000  Level Salt Lake Center
12:43AM 43.9544 -111.7983 307° West 449 517 40,000  Level Salt Lake Center
12:44AM 44.0408 -111.9253 313° West 452 520 40,000  Level Salt Lake Center
12:45AM 44.1281 -112.0528 314° West 453 521 40,000  Level Salt Lake Center
12:46AM 44.2156 -112.1800 314° West 452 520 40,000  Level Salt Lake Center
12:47AM 44.3028 -112.3106 313° West 455 524 40,000  Level Salt Lake Center
12:48AM 44.3897 -112.4392 313° West 456 525 40,000  Level Salt Lake Center
12:49AM 44.4761 -112.5689 313° West 456 525 40,000  Level Salt Lake Center
12:50AM 44.5608 -112.6964 313° West 450 518 40,000  Level Salt Lake Center
12:51AM 44.6453 -112.8244 313° West 450 518 40,000  Level Salt Lake Center
12:52AM 44.7467 -112.9781 313° West 449 517 40,000  Level Salt Lake Center
12:53AM 44.8308 -113.1061 313° West 448 516 40,000  Level Salt Lake Center
12:54AM 44.9144 -113.2350 313° West 447 514 40,000  Level Salt Lake Center
12:55AM 44.9981 -113.3639 313° West 447 514 40,000  Level Salt Lake Center
12:56AM 45.0822 -113.4939 313° West 447 514 40,000  Level Salt Lake Center
12:57AM 45.1653 -113.6242 312° West 447 514 40,000  Level Salt Lake Center
12:58AM 45.2508 -113.7544 313° West 450 518 40,000  Level Salt Lake Center
12:59AM 45.3444 -113.9008 312° West 450 518 40,000  Level Salt Lake Center
01:00AM 45.4283 -114.0306 313° West 450 518 40,000  Level Salt Lake Center
01:01AM 45.5111 -114.1619 312° West 450 518 40,000  Level Salt Lake Center
01:02AM 45.5936 -114.2936 312° West 450 518 40,000  Level Salt Lake Center
01:03AM 45.6781 -114.4272 312° West 454 522 40,000  Level Salt Lake Center
01:04AM 45.7575 -114.5569 311° West 445 512 40,000  Level Salt Lake Center
01:05AM 45.8397 -114.6886 312° West 444 511 40,000  Level Salt Lake Center
01:06AM 45.9233 -114.8247 311° West 453 521 40,000  Level Salt Lake Center
01:07AM 46.0039 -114.9567 311° West 447 514 40,000  Level Salt Lake Center
01:08AM 46.0931 -115.1017 312° West 442 509 40,000  Level Seattle Center
01:09AM 46.1739 -115.2361 311° West 442 509 40,000  Level Seattle Center
01:10AM 46.2703 -115.3950 311° West 442 509 40,000  Level Seattle Center
01:11AM 46.3494 -115.5289 311° West 441 507 40,000  Level Seattle Center
01:12AM 46.4300 -115.6622 311° West 441 507 40,000 -720 Level Seattle Center
01:13AM 46.5094 -115.7953 311° West 440 506 38,600 -2,100 Descending Seattle Center
01:14AM 46.5869 -115.9286 310° West 436 502 35,800 -3,120 Descending Seattle Center
01:15AM 46.6697 -116.0686 311° West 449 517 32,400 -3,180 Descending Seattle Center
01:16AM 46.7550 -116.2122 311° West 463 533 29,500 -2,880 Descending Seattle Center
01:17AM 46.8378 -116.3508 311° West 459 528 26,700 -2,640 Descending Seattle Center
01:18AM 46.9161 -116.4842 311° West 440 506 24,200 -2,580 Descending Seattle Center
01:19AM 46.9894 -116.6114 310° West 416 479 21,600 -2,460 Descending Seattle Center
01:20AM 47.0592 -116.7336 310° West 397 457 19,300 -2,280 Descending Seattle Center
01:21AM 47.1278 -116.8506 311° West 383 441 17,100 -2,220 Descending Seattle Center
01:22AM 47.1725 -116.9825 297° West 361 415 14,900 -1,860 Descending Seattle Center
01:23AM 47.2133 -117.1117 295° West 347 399 13,400 -1,440 Descending Seattle Center
01:24AM 47.2592 -117.2186 302° West 309 356 12,000 -1,740 Descending Seattle Center
01:25AM 47.3278 -117.3103 318° Northwest 301 346 10,000 -1,800 Descending Seattle Center
01:26AM 47.3853 -117.3897 317° Northwest 286 329 8,400 -1,620 Descending Seattle Center
01:27AM 47.4394 -117.4656 317° Northwest 272 313 6,800 -1,440 Descending Seattle Center
01:28AM 47.4919 -117.5367 318° Northwest 259 298 5,600 -1,200 Descending Seattle Center
01:29AM 47.5356 -117.5964 317° Northwest 215 247 4,400 -1,020 Descending Seattle Center
01:30AM 47.5722 -117.6081 348° North 161 185 3,600 -840 Descending Seattle Center
01:31AM 47.5975 -117.5697 46° Northeast 135 155 2,800 -660 Descending Seattle Center
01:33AM 47.6197 -117.5369 45° Northeast 130 150 2,300 -300 Descending Seattle Center
01:34AM 47.6375 -117.5075 48° Northeast 118 136 2,300  Level Seattle Center